World > North America > United States > Wisconsin

Sheboygan, Wisconsin Regional Weather

Lat: 43.75N, Lon: 87.72W
Wx Zone: WIZ052
Warning NWS WEATHER ALERT - (More Info. Click Here) Warning
Feedback

Sheboygan, WI Regional Weather

Expires:201909191500;;026158
ASUS43 KMKX 191421
RWRWI 

WISCONSIN REGIONAL WEATHER ROUNDUP
NATIONAL WEATHER SERVICE MILWAUKEE/SULLIVAN WI
900 AM CDT THU SEP 19 2019

NOTE: "FAIR" INDICATES FEW OR NO CLOUDS BELOW 12,000 FEET WITH NO
SIGNIFICANT WEATHER AND/OR OBSTRUCTIONS TO VISIBILITY.


WIZ051-052-058>065-066-070>072-191500-
SOUTHEAST WISCONSIN
  
CITY           SKY/WX    TMP DP  RH WIND       PRES   REMARKS
MILWAUKEE      PTSUNNY   69  58  67 S9        30.10R                  
WAUKESHA       SUNNY     66  57  72 S6        30.11R                  
MILWAUKEE/TIMM SUNNY     68  55  64 S6        30.11R                  
RACINE         FAIR      70  58  65 S7        30.12R                  
KENOSHA        FAIR      71  62  73 S7        30.11R                  
FOND DU LAC    TSTM      68  63  84 SW10      30.09R                  
SHEBOYGAN      FAIR      68  60  75 S9        30.09R                  
WEST BEND      FAIR      70  61  73 SW5       30.10R                  
JUNEAU         HVY RAIN  66  64  94 W8G22     30.11R                  
$$


SKY/WX - Weather  TMP - Temperature  DP - Dew Point  RH - Relative Humidity
WIND - Wind Direction/Speed PRES - Barometric Pressure VSB - Visibility
WCI - Wind Chill Index E13G22 Wind - East Wind 13 mph/Gusts of 22 mph